Location: Fort Wayne
(41.1310°N, 85.1290°W)
Time: 19:36:15
(UTC-04:00)

Vanguard 3 - Visible Passes

Search period start: 29 July 2016 00:00
Search period end: 08 August 2016 00:00
Orbit: 509 x 3266 km, 33.4° (Epoch: 28 July)

Date Brightness Start Highest point End Pass type
(mag) Time Alt. Az. Time Alt. Az. Time Alt. Az.
29 Jul 9.8 01:10:46 10° W 01:27:17 65° S 01:46:45 10° ESE visible
29 Jul 10.1 03:25:38 10° W 03:43:09 45° SSW 03:59:46 10° SE visible
29 Jul 10.6 05:45:11 10° W 05:56:42 19° SW 06:06:55 10° S visible
29 Jul 9.6 21:45:04 10° SW 21:56:07 53° SSE 22:13:34 10° E visible
29 Jul 9.7 23:56:34 10° WSW 00:11:06 67° S 00:30:52 10° ESE visible
30 Jul 9.9 02:10:10 10° W 02:27:16 55° SSW 02:45:46 10° SE visible
30 Jul 10.4 04:26:37 10° W 04:42:06 31° SW 04:56:17 10° SSE visible
30 Jul 9.6 22:43:01 10° WSW 22:55:23 63° S 23:14:17 10° E visible
31 Jul 9.8 00:55:31 10° W 01:11:08 62° SSW 01:30:40 10° ESE visible
31 Jul 10.1 03:10:08 10° W 03:26:48 42° SSW 03:43:37 10° SSE visible
31 Jul 10.7 05:30:24 10° W 05:40:25 16° SW 05:49:44 10° SSW visible
31 Jul 9.5 21:30:08 10° SW 21:40:23 54° SSE 21:57:14 10° E visible
31 Jul 9.7 23:41:31 10° W 23:55:07 65° S 00:14:40 10° ESE visible
01 Aug 10.0 01:54:50 10° W 02:11:01 52° SSW 02:29:36 10° SE visible
01 Aug 10.4 04:11:18 10° W 04:25:45 27° SW 04:39:44 10° S visible
01 Aug 9.5 22:28:07 10° WSW 22:39:37 63° S 22:57:57 10° E visible
02 Aug 9.8 00:40:22 10° W 00:55:02 59° SSW 01:06:53 29° SE visible
02 Aug 10.2 02:54:48 10° W 03:10:29 38° SSW 03:27:14 10° SSE visible
02 Aug 10.8 05:25:37 13° SW 05:25:37 13° SW 05:31:43 10° SSW visible
02 Aug 9.3 21:15:17 10° WSW 21:24:47 55° SSE 21:40:54 10° E visible
02 Aug 9.6 23:26:34 10° W 23:39:14 64° S 23:53:28 21° ESE visible
03 Aug 10.0 01:39:38 10° W 01:54:48 48° SSW 01:57:48 46° S visible
03 Aug 10.8 03:56:16 10° W 04:20:10 14° S 04:22:48 10° S visible
03 Aug 9.4 22:13:18 10° WSW 22:23:57 63° S 22:41:34 10° E visible
04 Aug 9.8 00:25:20 10° W 00:39:01 56° SSW 00:46:04 41° SSE visible
04 Aug 10.4 02:39:40 10° W 03:13:17 - SSE 02:50:29 32° SW visible
04 Aug11.205:18:04SSW05:18:04SSW04:54:55Wvisible
04 Aug 9.2 21:00:33 10° WSW 21:09:18 56° SSE 21:24:32 10° E visible
04 Aug 9.5 23:11:42 10° W 23:23:28 61° S 23:34:52 27° ESE visible
05 Aug 10.0 01:24:35 10° W 01:38:41 44° SSW 01:39:19 44° SSW visible
05 Aug 11.0 03:41:38 10° W 04:10:28 - S 03:43:46 13° WSW visible
05 Aug 9.3 21:58:33 10° WSW 22:08:24 61° S 22:23:59 13° ESE visible
06 Aug 9.7 00:10:25 10° W 00:23:06 52° SSW 00:28:27 42° SSE visible
06 Aug 10.5 02:24:45 10° W 02:32:56 26° WSW 02:32:56 26° WSW visible
06 Aug 9.5 22:56:55 10° W 23:07:47 57° S 23:17:48 28° SE visible
07 Aug 10.1 01:09:40 10° W 01:22:18 39° SSW 01:22:18 39° SSW visible
07 Aug 9.2 21:43:54 10° WSW 21:52:58 59° S 22:07:18 13° ESE visible
